VA7NIC-10 Weather Reports


time (UTC)temp
C
wind
direction
speed
KPH
gust
KPH
rain 1hr
cm
rain 24hr
cm
rain mn
cm
humidity
%
barometer
mb
20260504190701 24 157 0.0 0.0 0.00 0.00 0.00 44 1008.7
20260504185201 24 156 0.0 0.0 0.00 0.00 0.00 47 1008.8
20260504183701 23 158 0.0 0.0 0.00 0.00 0.00 47 1008.8
20260504182201 22 91 0.0 0.0 0.00 0.00 0.00 50 1008.8
20260504180702 22 354 0.0 0.0 0.00 0.00 0.00 50 1009.0
20260504175202 21 54 0.0 0.0 0.00 0.00 0.00 52 1009.0
20260504173702 20 230 0.0 0.0 0.00 0.00 0.00 54 1009.1
20260504172202 19 16 0.0 0.0 0.00 0.00 0.00 57 1009.1
20260504170702 18 112 0.0 0.0 0.00 0.00 0.00 59 1009.2
20260504150701 12 359 0.0 0.0 0.00 0.00 0.00 82 1009.7
20260504140702 11 359 0.0 0.0 0.00 0.00 0.00 78 1009.3
20260504130701 12 359 0.0 0.0 0.00 0.00 0.00 76 1009.0
20260504110701 13 359 0.0 0.0 0.00 0.00 0.00 68 1008.9
20260504080701 16 359 0.0 0.0 0.00 0.00 0.00 55 1008.9
20260504050701 20 359 0.0 0.0 0.00 0.00 0.00 41 1008.6
20260504045201 21 359 0.0 0.0 0.00 0.00 0.00 40 1008.6
20260504043701 22 359 0.0 0.0 0.00 0.00 0.00 38 1008.5
20260504042201 23 359 0.0 0.0 0.00 0.00 0.00 35 1008.6
20260504040701 24 359 0.0 0.0 0.00 0.00 0.00 31 1008.5
20260504035201 24 359 0.0 0.0 0.00 0.00 0.00 29 1008.5
20260504033701 25 359 0.0 0.0 0.00 0.00 0.00 30 1008.5
20260504032201 25 359 0.0 0.0 0.00 0.00 0.00 29 1008.6
20260504030701 26 359 0.0 0.0 0.00 0.00 0.00 27 1008.7
20260504025201 26 359 0.0 0.0 0.00 0.00 0.00 25 1008.7
20260504023702 26 359 0.0 0.0 0.00 0.00 0.00 24 1008.7
20260504022202 26 359 0.0 0.0 0.00 0.00 0.00 25 1008.7
20260504020702 26 359 0.0 0.0 0.00 0.00 0.00 23 1008.8
20260504015202 27 359 0.0 4.8 0.00 0.00 0.00 23 1008.9
20260504013701 27 359 0.0 1.6 0.00 0.00 0.00 21 1009.0
20260504012201 27 359 0.0 1.6 0.00 0.00 0.00 21 1009.1
20260504010701 27 359 0.0 0.0 0.00 0.00 0.00 22 1009.1
20260504005201 27 359 0.0 0.0 0.00 0.00 0.00 22 1009.3
20260504003701 27 359 0.0 0.0 0.00 0.00 0.00 21 1009.4
20260504002201 27 359 0.0 0.0 0.00 0.00 0.00 19 1009.6
20260504000701 27 359 0.0 0.0 0.00 0.00 0.00 20 1009.7
20260503235201 27 18 0.0 0.0 0.00 0.00 0.00 20 1009.8
20260503233701 27 39 0.0 1.6 0.00 0.00 0.00 21 1010.0
20260503232201 27 317 0.0 0.0 0.00 0.00 0.00 21 1010.2
20260503230702 27 41 0.0 0.0 0.00 0.00 0.00 22 1010.3
20260503225202 27 334 0.0 0.0 0.00 0.00 0.00 24 1010.4
20260503223702 27 332 0.0 0.0 0.00 0.00 0.00 24 1010.6
20260503222202 27 19 0.0 0.0 0.00 0.00 0.00 24 1010.8
20260503220702 27 327 0.0 0.0 0.00 0.00 0.00 25 1010.8
20260503215202 27 13 0.0 0.0 0.00 0.00 0.00 26 1011.0
20260503213701 27 242 0.0 0.0 0.00 0.00 0.00 28 1011.1
20260503212201 27 4 0.0 0.0 0.00 0.00 0.00 30 1011.2
20260503210701 27 62 0.0 0.0 0.00 0.00 0.00 31 1011.4
20260503205201 27 46 0.0 0.0 0.00 0.00 0.00 29 1011.6
20260503203701 26 10 0.0 0.0 0.00 0.00 0.00 31 1011.9
20260503202201 26 352 0.0 0.0 0.00 0.00 0.00 37 1012.2
20260503200701 25 137 0.0 0.0 0.00 0.00 0.00 40 1012.3
20260503195201 25 36 0.0 0.0 0.00 0.00 0.00 37 1012.6
20260503193701 25 37 0.0 0.0 0.00 0.00 0.00 39 1012.7
20260503192201 25 22 0.0 0.0 0.00 0.00 0.00 38 1012.8